Wind_Speed
51 52 52 50 48 50 56 55 54 55 53 54 59 59 58 55 53 53 53 54 54 55 55 54 53 50 48 46 44 44 42 41 39 37 36 32 28 27 25 24 23 21 20 19 17 16 16 18 19
52 54 54 52 50 49 51 56 55 58 59 56 57 59 61 59 54 54 57 54 56 55 57 57 56 54 53 49 47 47 46 44 42 39 37 32 31 29 28 25 24 23 23 22 20 20 18 19 20
56 57 56 54 53 51 51 53 58 59 59 58 57 56 57 57 59 58 60 60 60 57 58 59 59 57 55 53 51 50 50 47 45 41 37 35 34 33 29 27 25 25 24 24 24 23 22 21 20
50 54 56 53 53 55 54 55 57 59 60 61 59 57 58 59 58 57 61 64 62 62 58 61 62 59 57 55 54 54 51 49 46 42 40 36 35 35 33 30 27 26 26 27 27 27 26 25 23
51 53 50 49 52 54 56 57 58 59 59 59 59 59 58 59 60 60 61 64 64 64 63 59 61 61 60 58 56 54 53 47 44 43 40 38 35 35 32 31 31 27 28 29 28 28 28 28 26
53 55 55 55 54 54 55 58 58 58 58 58 60 60 62 58 60 61 64 66 65 65 64 63 61 59 56 55 54 50 48 46 46 46 43 40 38 36 33 31 32 29 27 29 29 30 30 30 27
51 55 57 56 56 56 56 56 57 59 60 60 62 61 62 62 63 62 64 69 70 67 68 66 64 62 59 55 54 54 52 50 51 51 49 45 41 39 36 32 33 32 30 28 29 30 31 31 30
34 41 46 53 58 57 57 57 57 60 61 63 63 64 65 66 66 67 67 71 74 71 68 69 67 61 60 59 56 55 56 55 55 54 51 48 44 42 40 36 34 34 34 33 32 31 32 32 31
27 31 35 41 49 56 58 58 58 59 61 63 65 65 67 69 71 69 69 70 74 74 72 71 69 64 56 56 58 56 58 58 57 56 52 50 46 45 42 40 38 36 35 35 36 35 36 35 34
18 23 27 32 39 48 55 58 60 61 60 62 63 64 66 68 71 71 72 73 74 76 76 75 71 66 59 55 58 58 58 60 58 57 53 50 49 48 45 43 41 40 38 36 37 39 40 40 40
19 20 23 26 33 39 45 50 53 55 55 54 54 55 56 57 63 66 69 70 76 80 78 78 75 72 55 59 60 60 63 61 58 58 55 52 50 50 48 45 44 44 42 39 36 37 40 42 43
22 24 24 26 29 33 37 42 46 49 51 52 53 53 53 55 58 63 66 70 73 82 83 79 77 76 73 61 56 58 60 58 56 58 58 54 52 52 50 47 46 46 44 40 39 38 40 41 40
15 20 26 28 28 30 34 38 42 47 51 53 53 53 52 52 54 52 54 63 75 80 85 84 81 80 78 77 69 54 57 61 60 57 58 59 55 53 52 50 48 48 46 43 40 39 42 42 41
24 17 19 25 31 31 31 35 39 42 44 50 53 53 53 52 49 48 44 50 62 81 85 87 86 84 82 82 83 75 57 61 67 69 61 60 57 56 53 53 50 50 47 45 42 41 43 44 43
38 26 19 18 23 30 32 32 35 39 41 45 48 51 53 54 51 47 43 43 53 71 86 90 88 88 86 85 85 85 78 66 67 71 69 64 60 52 54 55 55 53 50 48 45 44 44 44 44
56 39 28 20 19 23 30 34 34 36 41 43 46 49 51 53 53 51 47 44 48 58 80 91 89 89 90 91 90 89 89 83 73 67 67 68 61 57 52 55 58 55 53 52 49 49 48 47 47
66 52 40 31 22 19 23 29 35 39 40 41 44 47 49 50 53 56 54 51 48 53 66 84 90 90 91 92 93 93 92 94 89 79 75 65 67 65 59 56 54 55 54 53 51 50 52 51 51
68 62 45 36 31 26 25 22 28 37 41 45 45 44 46 49 51 54 59 57 55 54 59 74 88 91 90 95 95 97 97 97 96 92 83 76 70 67 64 64 56 54 57 58 58 54 53 53 51
71 63 56 42 34 30 26 27 26 28 39 44 46 47 47 47 50 53 55 58 62 61 60 62 76 91 92 93 97 99 101 101 99 98 93 86 74 76 70 64 61 53 64 61 57 56 55 55 55
83 67 59 52 41 36 32 29 29 32 32 39 46 48 50 50 50 51 54 57 60 64 68 68 68 72 86 97 97 98 102 104 103 100 98 93 91 83 73 71 72 67 62 62 57 59 60 59 56
86 74 63 59 50 42 35 36 30 30 33 34 40 49 53 54 57 56 54 55 58 64 68 72 76 78 78 83 93 99 99 101 106 106 103 101 97 92 86 76 74 73 71 63 62 70 68 65 63
94 93 68 60 54 48 41 38 38 34 31 32 36 43 51 55 57 58 59 61 60 65 66 72 78 81 83 84 84 85 91 99 102 104 107 106 103 99 96 96 86 82 77 73 71 70 76 74 68
92 101 77 62 56 51 49 40 43 39 36 32 34 37 44 51 56 57 57 59 64 67 69 75 77 79 82 83 84 83 86 86 90 100 106 107 109 107 106 102 96 93 86 84 84 76 75 74 69
100 96 93 70 58 54 51 46 46 42 41 38 34 34 39 44 48 51 54 57 59 61 66 73 75 77 78 79 80 81 85 86 89 92 93 103 109 109 110 108 105 100 98 96 89 90 83 78 79
99 102 99 75 63 58 55 50 50 44 41 38 34 33 35 41 42 45 48 52 53 57 61 64 67 69 71 72 76 78 81 85 88 90 92 93 95 103 111 113 111 109 105 104 102 98 90 84 85
100 107 106 103 71 63 58 53 51 47 40 38 37 33 33 37 42 44 46 48 48 52 54 58 60 62 64 65 67 70 73 82 84 87 90 92 95 95 95 106 113 113 112 110 104 101 96 94 92
110 112 106 102 87 67 61 57 57 49 43 40 40 33 31 33 39 42 42 42 44 45 45 50 52 56 58 58 62 64 66 72 80 83 86 90 93 94 95 94 99 112 114 117 108 103 100 97 94
115 113 110 103 91 68 62 55 58 48 44 41 42 38 30 31 36 39 40 40 39 40 44 48 50 51 53 55 59 63 67 70 72 79 83 83 87 89 93 95 95 96 109 113 112 107 100 101 101
117 115 119 97 94 69 61 54 58 49 43 41 41 39 34 29 33 33 34 34 35 38 42 44 44 47 47 46 52 58 64 69 72 74 78 80 81 85 90 92 96 99 95 103 113 112 109 111 103
114 116 122 104 95 71 59 56 61 52 44 43 43 38 35 29 31 31 31 32 34 36 39 39 42 42 41 42 43 48 54 60 66 70 71 73 78 81 85 90 91 94 97 98 94 107 114 112 111
Wind_Direction
252 249 249 252 250 246 242 243 245 248 247 246 245 244 243 241 244 242 245 243 244 242 241 242 243 246 248 250 254 256 260 264 265 266 266 266 259 252 254 253 254 255 255 263 262 264 261 252 249
250 248 247 250 249 249 245 242 245 247 246 244 244 244 244 243 241 243 244 241 242 241 241 241 243 244 247 250 252 256 259 265 267 265 263 261 254 251 250 250 248 250 253 255 256 259 260 260 252
248 248 248 247 248 247 245 245 246 247 247 247 246 246 245 244 239 240 242 240 239 240 241 241 242 244 245 248 251 254 258 262 265 265 262 258 253 248 248 248 248 247 250 251 252 249 252 258 256
251 251 250 248 249 247 246 246 245 247 246 246 245 244 244 244 243 240 239 237 237 237 238 240 241 242 245 248 249 253 257 260 261 263 260 259 257 250 246 249 248 247 249 246 249 246 247 250 254
251 251 251 253 251 250 247 247 247 247 246 247 245 243 242 241 242 241 243 239 234 237 237 238 240 242 244 247 249 251 255 256 257 259 260 259 257 251 247 245 245 246 247 244 245 249 247 249 250
253 252 251 250 252 251 249 246 245 247 248 247 244 244 242 240 242 240 239 242 238 235 237 237 237 239 241 243 244 246 250 251 254 257 258 257 255 252 247 244 242 242 242 242 245 247 249 249 250
256 255 253 252 251 250 249 248 246 247 248 246 245 245 243 242 241 241 239 240 239 235 235 237 237 238 239 242 244 244 245 248 251 254 258 257 254 253 246 245 241 239 237 239 243 247 250 251 248
262 257 254 250 249 250 250 250 249 249 250 251 249 248 245 245 243 243 240 236 240 236 234 236 237 238 242 244 245 244 244 246 249 252 255 254 252 252 250 246 243 241 240 238 241 247 250 251 250
264 260 256 253 251 249 249 249 249 250 251 252 251 250 250 247 246 245 243 239 238 238 234 235 236 236 238 247 247 247 247 248 251 253 254 252 251 248 248 247 246 243 242 243 243 246 250 252 253
275 268 260 256 253 251 249 249 250 252 252 254 253 251 251 252 252 248 243 239 236 237 236 234 233 233 235 239 248 250 250 251 252 253 253 251 249 245 244 245 245 247 246 245 244 247 252 253 253
285 275 269 263 257 253 252 251 251 251 251 250 252 253 250 247 248 249 244 238 236 234 235 234 232 230 224 234 238 247 254 255 255 253 254 251 249 244 243 246 247 248 249 247 247 248 252 254 254
282 276 269 266 263 259 256 253 252 251 252 251 249 250 250 249 249 247 247 241 235 232 232 233 232 229 224 222 229 234 242 248 255 252 252 253 249 245 244 245 247 249 250 247 248 249 254 255 257
316 284 270 269 266 264 262 258 256 253 251 253 251 249 248 250 250 252 249 240 230 228 229 231 232 231 228 226 224 230 236 240 241 250 253 249 248 246 246 245 247 247 247 248 247 248 253 256 258
6 328 290 268 265 265 262 258 258 258 256 254 255 255 252 250 253 256 255 247 234 224 225 230 231 231 230 227 228 226 228 239 241 246 248 252 249 249 249 247 247 248 248 248 249 249 252 256 259
16 7 341 303 276 265 261 259 253 254 255 255 253 254 253 253 251 252 256 249 239 228 222 225 230 232 232 232 229 229 225 227 236 243 245 246 246 252 251 248 246 247 248 248 250 250 251 254 258
13 9 4 346 315 282 266 260 258 254 252 251 252 253 252 252 250 249 248 250 244 238 227 224 228 231 233 231 231 230 230 227 230 233 241 243 244 246 249 249 248 247 248 250 251 252 253 255 257
14 8 1 356 344 321 287 267 264 257 254 253 253 252 251 251 250 247 246 246 245 242 237 230 227 229 231 234 233 233 232 231 230 231 233 234 239 244 250 244 244 248 250 250 250 254 255 256 255
7 9 6 357 349 338 319 300 274 262 259 255 253 252 253 251 248 249 247 245 244 242 239 236 233 231 232 232 234 234 234 234 233 232 230 233 237 238 238 241 243 245 249 250 250 249 253 255 256
5 4 5 359 353 344 329 315 298 282 263 256 255 254 252 250 249 247 247 247 248 246 243 241 239 238 236 234 234 235 237 236 235 234 232 231 232 241 235 238 239 242 248 246 245 249 249 250 252
4 1 1 359 355 347 341 325 312 297 282 266 257 252 251 251 251 248 245 246 245 246 248 247 243 242 242 241 239 237 236 237 237 236 235 233 232 233 236 239 238 234 241 246 245 245 246 247 247
4 0 359 358 354 345 345 332 319 304 294 284 264 255 252 249 247 247 247 246 247 246 245 246 247 246 242 242 243 241 240 238 237 238 237 235 232 231 231 227 233 236 238 246 252 246 247 246 248
4 1 356 354 353 344 339 341 325 320 305 294 280 262 253 252 251 250 248 246 247 247 247 247 246 246 248 247 245 245 243 242 240 239 237 238 236 234 231 233 236 238 234 232 234 245 247 244 249
359 357 359 353 351 343 336 336 323 323 312 301 291 276 261 254 253 254 253 253 249 247 248 249 250 251 250 249 250 248 246 244 243 241 240 238 236 236 234 233 234 235 236 235 234 243 242 240 246
357 356 0 353 350 345 337 332 320 319 315 308 304 289 270 257 254 253 253 254 256 254 251 253 254 254 254 253 251 248 247 246 244 242 240 239 237 236 235 235 233 234 234 237 239 240 241 243 245
356 357 358 354 346 343 337 331 321 317 316 312 306 296 278 262 255 255 256 257 259 261 260 260 260 258 258 257 254 249 247 245 243 242 240 240 239 237 235 235 234 234 234 236 238 240 241 244 247
350 352 353 354 344 340 335 327 317 318 315 308 302 302 285 263 253 252 254 257 259 261 262 262 263 262 262 261 258 253 246 244 243 241 240 238 238 237 236 234 234 234 235 237 237 241 243 242 246
348 350 347 349 348 339 335 327 315 318 316 309 306 302 291 271 259 254 254 257 262 263 265 267 267 267 264 262 259 254 250 243 243 242 239 238 237 236 236 235 234 234 234 236 237 238 241 243 242
350 347 346 347 347 340 336 326 313 321 318 315 304 303 293 274 259 257 260 262 263 265 271 270 270 268 270 264 257 253 251 248 243 240 240 238 237 236 235 235 234 234 235 236 237 236 235 238 241
346 343 345 346 344 338 336 320 317 320 315 311 301 305 296 277 262 258 262 262 262 267 271 274 277 277 274 269 258 252 247 247 246 241 238 238 235 233 235 234 233 234 234 235 235 237 236 235 237
342 342 344 344 342 337 333 317 319 312 316 306 302 303 294 281 262 255 259 258 260 270 277 284 286 286 282 276 265 255 246 244 242 240 236 233 233 232 232 232 233 234 234 235 235 236 237 238 237
Height
10710 10713 10716 10718 10722 10724 10727 10732 10734 10736 10739 10743 10747 10751 10758 10765 10768 10769 10770 10775 10778 10782 10786 10790 10793 10797 10800 10803 10806 10808 10811 10813 10816 10818 10820 10822 10824 10825 10826 10827 10828 10828 10829 10829 10829 10829 10829 10829 10830
10700 10703 10707 10709 10713 10715 10718 10722 10725 10724 10728 10734 10737 10742 10747 10754 10761 10759 10761 10767 10769 10773 10777 10781 10785 10789 10793 10797 10799 10802 10805 10807 10809 10812 10814 10816 10818 10820 10820 10822 10823 10824 10824 10825 10826 10826 10826 10826 10826
10689 10692 10697 10701 10705 10706 10709 10712 10713 10716 10720 10726 10730 10733 10737 10742 10748 10750 10751 10754 10760 10764 10768 10772 10777 10781 10786 10789 10792 10795 10798 10801 10803 10805 10809 10810 10811 10813 10815 10816 10818 10819 10820 10820 10821 10822 10822 10822 10822
10680 10683 10688 10694 10695 10697 10699 10700 10703 10704 10709 10714 10719 10723 10726 10731 10735 10740 10740 10745 10750 10754 10759 10763 10768 10772 10777 10781 10786 10788 10792 10795 10796 10799 10802 10803 10805 10807 10809 10811 10812 10813 10814 10815 10815 10816 10817 10817 10818
10670 10674 10679 10684 10685 10686 10689 10690 10692 10692 10698 10704 10708 10713 10716 10720 10725 10731 10731 10733 10741 10744 10750 10755 10759 10764 10768 10773 10778 10781 10785 10788 10790 10793 10795 10796 10799 10800 10802 10804 10806 10808 10809 10810 10810 10811 10811 10812 10813
10661 10664 10669 10672 10675 10676 10676 10679 10682 10684 10689 10693 10698 10701 10705 10709 10713 10719 10722 10721 10729 10737 10740 10745 10750 10755 10759 10764 10769 10773 10777 10781 10783 10785 10787 10790 10792 10793 10795 10797 10799 10802 10804 10805 10806 10806 10805 10806 10808
10649 10652 10657 10660 10662 10663 10666 10670 10674 10675 10675 10681 10684 10690 10693 10697 10701 10706 10710 10710 10714 10725 10729 10734 10742 10747 10751 10756 10760 10764 10769 10773 10775 10778 10780 10782 10785 10787 10788 10790 10792 10795 10798 10800 10800 10800 10800 10800 10803
10638 10641 10644 10647 10650 10652 10656 10658 10662 10664 10665 10668 10674 10677 10681 10683 10688 10692 10696 10699 10699 10711 10719 10723 10730 10740 10745 10749 10752 10756 10760 10764 10766 10769 10771 10774 10777 10779 10781 10783 10785 10788 10791 10793 10794 10794 10793 10794 10796
10630 10631 10635 10637 10638 10641 10645 10648 10650 10653 10655 10655 10660 10665 10667 10670 10671 10679 10685 10691 10693 10697 10708 10713 10720 10732 10739 10741 10744 10747 10750 10754 10757 10760 10763 10766 10769 10771 10773 10775 10778 10781 10784 10787 10789 10789 10786 10788 10790
10625 10625 10626 10628 10629 10629 10632 10636 10639 10641 10643 10643 10648 10652 10654 10654 10655 10662 10669 10676 10681 10684 10693 10699 10710 10719 10730 10735 10736 10738 10741 10744 10748 10751 10754 10756 10759 10762 10764 10767 10770 10772 10776 10779 10782 10783 10780 10782 10783
10620 10620 10620 10621 10621 10620 10621 10624 10626 10628 10630 10633 10635 10639 10641 10642 10641 10644 10651 10660 10666 10670 10676 10684 10695 10705 10716 10722 10728 10731 10732 10735 10739 10741 10744 10747 10750 10752 10756 10759 10762 10764 10767 10771 10774 10775 10773 10773 10775
10617 10615 10614 10614 10614 10614 10614 10614 10615 10616 10617 10620 10623 10626 10629 10629 10630 10630 10632 10641 10649 10654 10662 10670 10681 10690 10701 10707 10714 10720 10723 10725 10727 10730 10734 10737 10740 10743 10746 10750 10753 10755 10758 10763 10766 10768 10765 10765 10767
10611 10609 10608 10607 10606 10606 10607 10606 10605 10607 10607 10607 10611 10614 10616 10615 10615 10618 10617 10621 10630 10638 10646 10655 10664 10673 10684 10692 10699 10706 10710 10714 10717 10720 10722 10726 10729 10732 10737 10742 10744 10746 10749 10753 10757 10759 10758 10757 10759
10609 10604 10601 10600 10599 10598 10597 10597 10597 10597 10597 10597 10598 10600 10603 10604 10604 10604 10606 10608 10613 10625 10632 10639 10647 10656 10666 10675 10683 10692 10697 10701 10705 10707 10713 10715 10718 10722 10727 10732 10735 10737 10741 10744 10748 10751 10750 10749 10750
10610 10603 10597 10593 10591 10589 10588 10589 10588 10587 10587 10587 10587 10587 10588 10591 10596 10597 10595 10596 10599 10607 10616 10624 10630 10639 10649 10658 10667 10675 10681 10686 10690 10694 10699 10702 10708 10711 10716 10720 10724 10726 10731 10734 10739 10741 10740 10741 10741
10606 10601 10595 10590 10585 10582 10580 10579 10579 10577 10576 10576 10576 10576 10577 10578 10582 10586 10587 10587 10589 10593 10601 10610 10617 10623 10630 10638 10646 10656 10664 10671 10676 10681 10685 10691 10694 10700 10704 10708 10712 10715 10719 10723 10729 10731 10731 10731 10731
10606 10597 10590 10585 10581 10576 10572 10570 10568 10567 10566 10564 10565 10565 10567 10569 10570 10572 10575 10578 10581 10584 10588 10595 10602 10608 10614 10619 10629 10637 10644 10650 10658 10665 10671 10676 10682 10689 10697 10697 10700 10704 10707 10711 10717 10720 10722 10722 10722
10604 10597 10589 10582 10575 10569 10564 10562 10558 10555 10554 10554 10553 10554 10555 10557 10559 10559 10562 10567 10570 10572 10573 10577 10583 10591 10597 10603 10608 10616 10624 10631 10638 10645 10654 10660 10668 10675 10680 10684 10687 10692 10694 10698 10702 10707 10710 10712 10712
10601 10593 10585 10576 10569 10563 10556 10551 10548 10544 10541 10540 10540 10542 10542 10543 10544 10546 10550 10552 10556 10559 10562 10565 10568 10573 10579 10585 10590 10596 10603 10610 10619 10627 10637 10645 10659 10657 10666 10669 10673 10676 10680 10683 10689 10695 10697 10699 10700
10596 10586 10579 10570 10563 10556 10550 10543 10538 10532 10530 10526 10526 10526 10527 10528 10529 10530 10535 10538 10540 10543 10544 10548 10553 10557 10560 10564 10569 10575 10582 10589 10598 10609 10618 10628 10636 10644 10649 10652 10655 10660 10666 10670 10674 10679 10683 10684 10687
10593 10584 10573 10564 10555 10549 10544 10535 10529 10524 10519 10514 10510 10509 10510 10512 10513 10515 10518 10522 10524 10525 10528 10529 10531 10535 10540 10542 10545 10553 10562 10569 10577 10585 10593 10603 10612 10622 10629 10630 10638 10647 10652 10658 10659 10662 10667 10669 10671
10591 10582 10569 10558 10549 10540 10533 10527 10517 10512 10507 10504 10498 10494 10493 10495 10497 10499 10502 10505 10507 10508 10511 10510 10511 10514 10517 10523 10527 10532 10539 10547 10553 10560 10574 10582 10592 10602 10611 10617 10626 10629 10636 10640 10639 10644 10649 10653 10655
10584 10575 10562 10551 10542 10532 10521 10516 10505 10501 10494 10490 10486 10483 10480 10478 10480 10484 10486 10487 10487 10491 10491 10490 10492 10494 10497 10501 10506 10511 10517 10523 10526 10536 10546 10554 10567 10575 10585 10597 10603 10610 10618 10622 10624 10628 10631 10635 10640
10577 10568 10557 10543 10532 10523 10513 10505 10495 10490 10483 10478 10474 10468 10465 10463 10465 10467 10469 10469 10470 10471 10473 10473 10474 10474 10476 10479 10482 10487 10491 10497 10503 10508 10517 10527 10538 10551 10563 10572 10583 10591 10599 10603 10610 10610 10616 10621 10621
10569 10560 10552 10540 10525 10512 10502 10494 10482 10479 10472 10466 10461 10456 10451 10449 10450 10451 10453 10454 10455 10455 10455 10454 10454 10454 10455 10457 10459 10463 10465 10470 10475 10483 10492 10501 10510 10522 10536 10546 10557 10567 10577 10581 10590 10594 10601 10607 10606
10561 10548 10540 10534 10521 10506 10491 10483 10472 10467 10460 10454 10448 10444 10441 10438 10436 10437 10439 10440 10441 10440 10440 10438 10436 10434 10435 10435 10435 10437 10441 10444 10450 10457 10466 10474 10483 10495 10506 10522 10534 10544 10553 10559 10572 10579 10586 10589 10593
10550 10538 10527 10518 10507 10496 10485 10469 10455 10454 10449 10443 10437 10433 10428 10425 10424 10425 10426 10427 10427 10425 10424 10421 10420 10417 10415 10414 10413 10414 10417 10422 10426 10433 10442 10450 10459 10471 10483 10494 10508 10520 10530 10533 10552 10561 10568 10575 10577
10534 10527 10516 10505 10495 10487 10475 10458 10443 10444 10437 10432 10424 10421 10416 10413 10411 10411 10412 10414 10414 10412 10409 10406 10403 10401 10398 10395 10392 10393 10395 10398 10404 10410 10416 10429 10439 10450 10459 10472 10484 10494 10507 10521 10528 10541 10551 10553 10559
10522 10513 10502 10494 10483 10470 10463 10445 10433 10430 10425 10420 10411 10408 10405 10402 10400 10400 10401 10402 10402 10401 10397 10393 10389 10384 10380 10375 10371 10372 10373 10377 10381 10388 10397 10407 10418 10430 10439 10448 10460 10469 10484 10494 10506 10519 10529 10534 10547
10511 10499 10488 10479 10470 10457 10447 10433 10420 10415 10412 10406 10399 10395 10393 10391 10389 10389 10391 10391 10391 10388 10384 10379 10375 10369 10363 10357 10354 10353 10354 10356 10360 10367 10376 10387 10397 10407 10418 10428 10440 10452 10462 10472 10488 10497 10508 10517 10528